Ono, PA

12:08 PM EST on February 12, 2016 (GMT -0500)
Muir Army Air Field

Weather History for KMUI - September, 2012

Change the Weather History Date:

Sunday, September 9, 2012

  Actual Average Record
Temperature  
Mean Temperature 62 °F -  
Max Temperature 74 °F 75 °F 93 °F (2002)
Min Temperature 52 °F 60 °F 44 °F (2013)
Degree Days  
Heating Degree Days 2    
Growing Degree Days 12 (Base 50)    
Moisture  
Dew Point 54 °F    
Average Humidity 67    
Maximum Humidity 98    
Minimum Humidity 47    
Precipitation  
Precipitation 0.00 in - - ()
Sea Level Pressure  
Sea Level Pressure 29.89 in    
Wind  
Wind Speed 6 mph (WNW)    
Max Wind Speed 12 mph    
Max Gust Speed -    
Visibility 10 miles    
Events Rain    
Averages and records for this station are not official NWS values.
T = Trace of Precipitation, MM = Missing Value Source: NWS Daily Summary

Daily Weather History Graph

Daily Weather History Graph

Search for Another Location

Airport or City:

Trip Planner

Search our weather history database for the weather conditions in past years. The results will help you decide how hot, cold, wet, or windy it might be!

Date:

Astronomy

Sep. 09, 2012 Rise Set
Actual Time 6:41 AM EDT 7:24 PM EDT
Civil Twilight 6:14 AM EDT 7:51 PM EDT
Nautical Twilight 5:41 AM EDT 8:24 PM EDT
Astronomical Twilight 5:07 AM EDT 8:57 PM EDT
Moon 12:08 AM EDT (9/9) 3:08 PM EDT (9/9)
Length of Visible Light 13h 37m
Length of Day
12h 42m
Last Quarter, 39% of the Moon is Illuminated
Sep 9
Last Quarter
Sep 15
New
Sep 22
First Quarter
Sep 29
Full
Oct 8
Last Quarter

Hourly Weather History & Observations

Time (EDT) Temp. Dew Point Humidity Pressure Visibility Wind Dir Wind Speed Gust Speed Precip Events Conditions
12:55 AM 63.7 °F 54.5 °F 72% 29.84 in 10.0 mi West 11.5 mph - N/A   Partly Cloudy
1:55 AM 63.9 °F 53.8 °F 70% 29.83 in 10.0 mi West 8.1 mph - N/A   Clear
2:55 AM 63.5 °F 53.4 °F 70% 29.83 in 10.0 mi West 9.2 mph - N/A   Clear
3:55 AM 56.7 °F 54.5 °F 92% 29.84 in 10.0 mi Calm Calm - N/A   Clear
4:55 AM 54.9 °F 53.6 °F 96% 29.84 in 10.0 mi Calm Calm - N/A   Clear
5:55 AM 54.1 °F 52.9 °F 95% 29.86 in 9.0 mi Calm Calm - N/A   Clear
6:55 AM 52.3 °F 51.8 °F 98% 29.87 in 10.0 mi Calm Calm - N/A   Clear
7:55 AM 57.0 °F 55.0 °F 93% 29.89 in 10.0 mi Calm Calm - N/A   Clear
8:55 AM 61.9 °F 56.5 °F 82% 29.90 in 10.0 mi SE 3.5 mph - N/A   Clear
9:55 AM 65.5 °F 57.6 °F 76% 29.91 in 10.0 mi SW 3.5 mph - N/A   Clear
10:55 AM 69.4 °F 57.4 °F 65% 29.91 in 10.0 mi Variable 4.6 mph - N/A   Clear
11:45 AM 71.6 °F 55.4 °F 57% 29.90 in 10.0 mi Variable 4.6 mph - N/A Rain Light Rain
11:54 AM 71.6 °F 57.2 °F 60% 29.89 in 10.0 mi East 3.5 mph - N/A   Scattered Clouds
11:55 AM 72.5 °F 56.5 °F 57% 29.89 in 10.0 mi Variable 3.5 mph - 0.00 in   Mostly Cloudy
11:56 AM 71.6 °F 55.4 °F 57% 29.89 in 10.0 mi Variable 3.5 mph - N/A Rain Light Rain
12:05 PM 71.6 °F 55.4 °F 57% 29.89 in 10.0 mi South 4.6 mph - N/A   Mostly Cloudy
12:55 PM 72.3 °F 52.9 °F 50% 29.88 in 10.0 mi Variable 4.6 mph - 0.00 in   Partly Cloudy
1:55 PM 71.1 °F 54.0 °F 55% 29.87 in 10.0 mi West 6.9 mph - N/A   Mostly Cloudy
2:55 PM 70.7 °F 55.4 °F 58% 29.86 in 10.0 mi NW 8.1 mph - N/A   Mostly Cloudy
3:55 PM 73.0 °F 54.1 °F 51% 29.86 in 10.0 mi Variable 3.5 mph - N/A   Partly Cloudy
4:55 PM 73.0 °F 52.7 °F 49% 29.86 in 10.0 mi NNW 6.9 mph - N/A   Mostly Cloudy
5:55 PM 73.4 °F 53.2 °F 49% 29.87 in 10.0 mi Variable 4.6 mph - N/A   Mostly Cloudy
6:55 PM 69.8 °F 48.6 °F 47% 29.89 in 10.0 mi Variable 3.5 mph - N/A   Clear
7:55 PM 66.9 °F 51.6 °F 58% 29.91 in 10.0 mi WNW 4.6 mph - N/A   Clear
8:55 PM 65.5 °F 51.4 °F 60% 29.93 in 10.0 mi WNW 5.8 mph - N/A   Clear
9:55 PM 63.9 °F 51.1 °F 63% 29.94 in 10.0 mi NW 8.1 mph - N/A   Clear
10:55 PM 59.5 °F 52.7 °F 78% 29.96 in 10.0 mi NNW 4.6 mph - N/A   Clear
11:55 PM 61.9 °F 51.6 °F 69% 29.97 in 10.0 mi NNW 9.2 mph - N/A   Clear